FW8927 Weather Reports


Display with metric or nautical units.
time (UTC)temp
F
wind
direction
speed
MPH
gust
MPH
rain 1hr
in
rain 24hr
in
rain mn
in
humidity
%
barometer
mb
20260503000059 49 304 0.0 3.0 0.00 0.00 0.00 62 1014.1
20260502234558 50 0 0.0 3.0 0.00 0.00 0.00 62 1013.9
20260502233055 51 0 0.0 3.0 0.00 0.00 0.00 63 1013.9
20260502231554 51 0 0.0 5.0 0.00 0.00 0.00 62 1013.9
20260502230055 51 286 1.0 7.0 0.00 0.00 0.00 56 1014.0
20260502224604 51 5 2.0 8.0 0.00 0.00 0.00 58 1013.9
20260502223114 52 317 2.0 7.0 0.00 0.00 0.00 56 1013.8
20260502221558 52 134 0.0 4.0 0.00 0.00 0.00 58 1013.9
20260502214555 52 308 1.0 9.0 0.00 0.00 0.00 56 1013.7
20260502213124 52 281 1.0 7.0 0.00 0.00 0.00 58 1013.7
20260502211620 52 231 1.0 8.0 0.00 0.00 0.00 58 1013.6
20260502210056 52 49 1.0 5.0 0.00 0.00 0.00 57 1013.6
20260502204558 53 280 2.0 7.0 0.00 0.00 0.00 53 1013.6
20260502203104 55 295 2.0 8.0 0.00 0.00 0.00 55 1013.6
20260502201559 53 40 2.0 7.0 0.00 0.00 0.00 55 1013.8
20260502200056 53 265 2.0 11.0 0.00 0.00 0.00 54 1013.7
20260502194606 53 251 3.0 7.0 0.00 0.00 0.00 55 1014.0
20260502193106 54 198 2.0 6.0 0.00 0.00 0.00 52 1014.0
20260502191618 54 104 2.0 10.0 0.00 0.00 0.00 51 1013.9
20260502190054 54 117 1.0 8.0 0.00 0.00 0.00 53 1014.0
20260502184557 54 5 6.0 15.0 0.00 0.00 0.00 50 1014.2
20260502183101 54 301 2.0 11.0 0.00 0.00 0.00 53 1014.2
20260502181549 53 15 1.0 7.0 0.00 0.00 0.00 53 1014.2
20260502163056 52 264 2.0 9.0 0.00 0.00 0.00 57 1014.5
20260502161554 54 254 2.0 12.0 0.00 0.00 0.00 53 1014.5
20260502151609 53 90 1.0 6.0 0.00 0.00 0.00 60 1014.6
20260502123057 42 63 1.0 4.0 0.00 0.00 0.00 90 1014.7
20260502121554 40 80 0.0 2.0 0.00 0.00 0.00 96 1014.8
20260502114609 38 0 0.0 0.0 0.00 0.00 0.00 97 1014.5
20260502113057 37 0 0.0 0.0 0.00 0.00 0.00 97 1014.3
20260502111557 37 0 0.0 2.0 0.00 0.00 0.00 97 1014.3
20260502110053 36 0 0.0 0.0 0.00 0.00 0.00 97 1014.2
20260502104554 36 0 0.0 0.0 0.00 0.00 0.00 96 1014.1
20260502103054 36 0 0.0 0.0 0.00 0.00 0.00 96 1013.9
20260502101621 36 0 0.0 2.0 0.00 0.00 0.00 96 1013.8
20260502090112 36 0 0.0 0.0 0.00 0.00 0.00 95 1013.9
20260502080110 37 0 0.0 0.0 0.00 0.00 0.00 95 1014.2
20260502070132 37 0 0.0 0.0 0.00 0.00 0.00 94 1013.7
20260502064558 37 0 0.0 0.0 0.00 0.00 0.00 94 1013.9
20260502063057 38 0 0.0 0.0 0.00 0.00 0.00 94 1014.0
20260502061602 38 0 0.0 2.0 0.00 0.00 0.00 93 1014.3
20260502060100 38 0 0.0 0.0 0.00 0.00 0.00 92 1014.4
20260502054557 39 0 1.0 2.0 0.00 0.00 0.00 92 1014.3
20260502053051 39 0 0.0 2.0 0.00 0.00 0.00 92 1014.5
20260502051617 40 80 1.0 2.0 0.00 0.00 0.00 91 1014.5
20260502050053 40 112 1.0 2.0 0.00 0.00 0.00 90 1014.5
20260502044552 40 112 1.0 2.0 0.00 0.00 0.00 89 1014.8
20260502043054 41 0 0.0 2.0 0.00 0.00 0.00 88 1014.9
20260502041553 42 0 0.0 0.0 0.00 0.00 0.00 86 1014.9
20260502040100 42 0 0.0 0.0 0.00 0.00 0.00 85 1014.9
20260502034550 43 0 0.0 1.0 0.00 0.00 0.00 83 1014.8
20260502033104 44 0 0.0 1.0 0.00 0.00 0.00 83 1014.8
20260502031556 44 0 0.0 0.0 0.00 0.00 0.00 82 1014.9
20260502030105 45 0 0.0 0.0 0.00 0.00 0.00 80 1014.7
20260502024555 45 112 0.0 2.0 0.00 0.00 0.00 79 1014.8
20260502023116 46 0 0.0 1.0 0.00 0.00 0.00 77 1014.9
20260502021552 47 0 0.0 2.0 0.00 0.00 0.00 76 1014.7
20260502020106 47 0 0.0 2.0 0.00 0.00 0.00 75 1014.9
20260502014555 48 0 0.0 2.0 0.00 0.00 0.00 74 1014.4
20260502013103 48 0 0.0 3.0 0.00 0.00 0.00 73 1013.8
20260502011604 49 0 0.0 3.0 0.00 0.00 0.00 71 1013.4
20260502010059 50 79 0.0 6.0 0.00 0.00 0.00 69 1013.2
20260502004611 50 96 1.0 4.0 0.00 0.00 0.00 70 1012.8
20260502003058 51 175 0.0 3.0 0.00 0.00 0.00 67 1012.6
20260502001608 52 90 0.0 2.0 0.00 0.00 0.00 69 1012.4